Regional Weather Roundup
Issued by NWS

Home | Current Version | Previous Version | Graphics & Text | Print | Product List | Glossary On
Versions: 1 2 3 4 5 6 7 8 9 10 11 12 13 14 15 16 17 18 19 20 21 22 23 24 25 26 27 28 29 30 31 32 33 34 35 36 37 38 39 40 41 42 43 44 45 46 47 48 49 50
000
ASUS45 KBOU 310207
RWRCO

WEATHER ROUNDUP FOR COLORADO
NATIONAL WEATHER SERVICE DENVER/BOULDER CO
800 PM MDT WED JUL 30 2014

NOTE: "FAIR" INDICATES FEW OR NO CLOUDS BELOW 12000 FEET WITH NO
SIGNIFICANT WEATHER AND/OR OBSTRUCTIONS TO VISIBILITY.

COZ001>005-013-030-031-310300-
...NORTHWEST COLORADO...

CITY           SKY/WX    TMP DP  RH WIND       PRES   REMARKS
CRAIG          LGT RAIN  59  56  89 E7        30.29R
HAYDEN         MOCLDY    61  55  82 E6        30.31S
MEEKER         CLOUDY    68  54  60 N8        30.28R
MOUNT WERNER   NOT AVBL
STEAMBOAT SPGS CLOUDY    60  53  77 N3        30.32S
WALDEN         CLOUDY    54  43  66 NE12      30.42S
$$

COZ006>008-011-310300-
...WEST CENTRAL VALLEYS...

CITY           SKY/WX    TMP DP  RH WIND       PRES   REMARKS
GRAND JUNCTION MOCLDY    71  59  65 W9        30.13F
MONTROSE       CLEAR     77  52  41 NW13      30.19S
EAGLE          CLOUDY    64  55  72 NW6       30.31S
RIFLE          CLOUDY    72  55  55 CALM      30.20R
DELTA          PTCLDY    82  51  33 W9        30.12F
NUCLA          CLEAR     79  50  36 NW5       30.21S
$$

COZ017>023-064>068-310300-
...SOUTHWEST COLORADO...

CITY           SKY/WX    TMP DP  RH WIND       PRES   REMARKS
DURANGO        MOCLDY    79  46  31 NW13      30.20R
CORTEZ         CLEAR     81  49  32 N12       30.16S
PAGOSA SPRINGS CLEAR     70  48  44 E3        30.28S
TELLURIDE      NOT AVBL
WOLF CREEK PAS NOT AVBL
$$

COZ009-010-012-014-032>034-037-058>063-310300-
...CENTRAL COLORADO...

CITY           SKY/WX    TMP DP  RH WIND       PRES   REMARKS
ASPEN          CLOUDY    57  55  93 SW5       30.37F
BUENA VISTA    CLOUDY    59  51  73 SE10      30.40S
COPPER MTN     CLOUDY    46  41  81 CALM      30.64S HAZE
BERTHOUD PASS  LGT RAIN  36  34  93 SE10      30.69F VSB<1/4
COTTONWOOD PAS RAIN      54  52  94 CALM      30.52R
GUNNISON       MOCLDY    70  46  43 NW13G20   30.33R
KREMMLING      LGT RAIN  55  50  82 CALM      30.40R
LEADVILLE      LGT RAIN  48  46  93 CALM      30.50S
MONARCH PASS   CLOUDY    45  43  93 NE14      30.73R VSB<1/4
SALIDA         CLOUDY    60  54  80 E12G20    30.45R
SUNLIGHT       CLOUDY    52  48  87 W3        30.57R
WILKERSON PASS LGT RAIN  43  43 100 E10G18    30.63S VSB 1/4
$$

COZ069>075-310300-
...SAN LUIS VALLEY/SANGRE DE CRISTO MOUNTAINS...

CITY           SKY/WX    TMP DP  RH WIND       PRES   REMARKS
ALAMOSA        CLOUDY    62  53  72 E6        30.32R
LA VETA PASS   CLOUDY    46  45  93 E15       30.53R VSB 1/2
SAGUACHE       PTCLDY    63  54  72 SE13      30.35R
$$

COZ035-036-038>040-310300-
...NORTHERN COLORADO FRONT RANGE...

CITY           SKY/WX    TMP DP  RH WIND       PRES   REMARKS
DENVER INTL AP CLOUDY    59  55  87 S5        30.34S
DMNS CITY PARK   N/A     57  56  95 S1G9      30.35R
AURORA         LGT RAIN  57  57  99 S5        30.37R
FRONT RANGE AP CLOUDY    61  59  94 S5        30.35S
ERIE MUNI ARPT DRIZZLE   59  57  96 SW3       30.35S
BOULDER MUN AP RAIN      57  57 100 CALM      30.35S
CENTENNIAL     LGT RAIN  56  53  90 E9        30.37R FOG
BROOMFIELD     NOT AVBL
FORT COLLINS   CLOUDY    59  55  88 CALM      30.35S
LONGMONT       LGT RAIN  60  58  93 SW6       30.36S
$$

COZ041-046-047-076>085-087-088-310300-
...PIKES PEAK/PALMER DIVIDE AND SOUTHERN FOOTHILLS...

CITY           SKY/WX    TMP DP  RH WIND       PRES   REMARKS
COLO. SPRINGS  LGT RAIN  58  54  86 E6        30.39R
A. F. ACADEMY  DRIZZLE   55  55 100 S3        30.39S
ELLICOTT       CLOUDY    59  51  75 E9        30.37R
FALCON         LGT RAIN  54  53  95 E3        30.42R
FORT CARSON    CLOUDY    59  57  94 E2        30.37R
LIMON          CLOUDY    60  51  72 SW3       30.33S
MONUMENT HILL  RAIN      52  50  93 E7        30.41R
TRINIDAD       CLOUDY    61  56  83 E10       30.33R
$$

COZ042>045-048>051-090-091-310300-
...NORTHEAST COLORADO...

CITY           SKY/WX    TMP DP  RH WIND       PRES   REMARKS
GREELEY ARPT   NOT AVBL
AKRON          CLOUDY    60  55  83 W9        30.30S
BURLINGTON     CLOUDY    65  57  75 CALM      30.26S
WRAY             N/A     68  57  66 W3        30.24S
STERLING       CLOUDY    66  61  82 W5        30.26S
HOLYOKE        CLOUDY    68  57  68 W6        30.24S
FORT MORGAN    CLOUDY    60  57  89 CALM      30.31S
$$

COZ086-089-092>099-310300-
...SOUTHEAST COLORADO...

CITY           SKY/WX    TMP DP  RH WIND       PRES   REMARKS
PUEBLO         CLOUDY    64  59  83 SE5       30.30R
LA JUNTA       CLOUDY    65  59  81 SE7       30.27S
LAMAR          MOCLDY    66  56  70 E6        30.24S
SPRINGFIELD      N/A     61  58  90 NE7       30.27S
$$



USA.gov is the U.S. government's official web portal to all federal, state and local government web resources and services.